Showing default

SKYSAT C9, 42989

Orbit data source: Space-Track

SKYSAT C9, 42989 is a payload satellite owned by Terra Bella (US) in SSO that was launched on Tue, 31 Oct 2017 UTC via a MINOTAUR-C 3210 launch vehicle from the Air Force Western Test Range (AFWTR). Payloads include a variety of satellites, spacecraft, and rockets equipped with specific instruments for various scientific and technological missions. These include communications satellites like Starlink; space stations such as the ISS; scientific satellites like the Hubble; Earth observation satellites from companies like Planet Labs, Umbra, and HawkEye 360; GPS; miniature CubeSats for education and research; and military/defense satellites.

Loading next visibility...
SKYSAT C9 details
Identifier
42989, 2017-068C
Orbit
SSO
Last TLE update7 hours ago
Origin
Flag of USTerra Bella (US)
ManufacturerMaxar SSL
MissionOperational Commercial Imaging
Bus & MotorSKYSAT-GEN2, Unknown motor
Mass110 kg wet, 110 kg dry
Launch date (UTC)
2017-10-31 (7 years ago)
Launch vehicle
MINOTAUR-C 3210
Launch site
Air Force Western Test Range (AFWTR)
Object type
Payload
Rocket body
Debris
Shape & HBRBox, 1.2 m
Radar Cross Section0.888 m², Medium (>0.1 m² and < 1m²)

Expand to show TLE details & history

TLE from 7 hours ago
0 SKYSAT C9
1 42989U 17068C   24361.12906777  .00019056  00000-0  59278-3 0  9994
2 42989  97.3771 124.5345 0003623 237.5279 122.5614 15.33352245400166
Epoch: 2024-12-26T03:05Z
Definitive object data (Epoch: 2024-12-26T03:05:51.455Z)
Latitude0.00004°
Longitude-17.0428°
Altitude470.264 km
Speed7.63 km/s
True Right ascension08h 18m 08s
True Declination0° 00' 00"
Sunlit
Object was in full shadow at TLE epoch
Visualization TLE readout
Latitude22.36202°
Longitude166.28249°
Altitude468.207 km
Speed7.634 km/s
Apparent Right ascension20h 54m 19s
Apparent Declination-7° 33' 35"
Sunlit
Object is in daylight
Visualization observer readout
Local Sidereal Time09:23:57
Azimuth13.56° NNE
Elevation-56.971°
Doppler factor1
Orbital elements
Apogee altitude465.244 km
Perigee altitude460.288 km
Semi-major axis6,840.903 km
Eccentricity0.0003623
Inclination97.3771°
RAAN124.5345°
Arg. of periapsis237.5279°
True anomaly122.59638°
Mean anomaly122.5614°
Eccentric anomaly122.57889°
Mean motion3.83595 °/min
BSTAR0.00059278
Orbital period93.85 mins
Loading maneuver chart data...
Loading historical data...
Loading historical data...
Loading historical data...
Loading historical data...
Loading historical data...
Loading historical data...
Loading historical data...

SKYSAT C9 Visibility forecast

Observer location: undefined°, undefined

Span
Click to sort rows by Start time (UTC) header in descending order
Start Az.
Max El. time (UTC)
Max El. Az.
Max El.
End time (UTC)
End Az.
5 mins2024-12-26 20:53:50.168Z36.407° NE2024-12-26 20:55:50.168Z81.225° E29.567°2024-12-26 20:58:50.168Z161.912° S
4 mins2024-12-27 08:59:50.168Z210.508° SW2024-12-27 09:01:50.168Z273.372° WNW29.148°2024-12-27 09:03:50.168Z321.195° NNW
|